Location: Brusselsch Zeekanaal
(50.8667°N, 4.3667°E)
Time: 07:22:41
(UTC+00:00)

SKYMED 2 - Pass Details

Date: 08 November 2025
Orbit: 621 x 623 km, 97.9° (Epoch: 12 December)

Event Time Altitude Azimuth Distance (km) Brightness Sun altitude
Rises 04:53:14 0° 170° (S) 2,895 7.2 -18.0°
Reaches altitude 10° 04:55:25 10° 172° (S) 1,993 6.3 -17.7°
Maximum altitude 04:59:45 72° 257° (WSW) 660 3.5 -17.0°
Drops below altitude 10° 05:04:07 10° 342° (NNW) 2,008 5.9 -16.3°
Sets 05:06:20 0° 345° (NNW) 2,919 6.8 -15.9°
